"Pseudo-MPEC" for C142AD5

Created 2025 May 20 3:31:02 UT using Find_Orb

Click here for an explanation of pseudo-MPECs

 
 Astrometry: 
     C142AD5* C2025 05 04.41311717 03 50.890+35 55 57.68   ~54Al 21.23GVNEOCPV00
     C142AD5  C2025 05 04.41872817 03 48.301+35 54 25.88   ~54Al 20.76GVNEOCPV00
     C142AD5  C2025 05 04.42432817 03 45.803+35 52 55.81   ~54Al 21.12GVNEOCPV00
     C142AD5  C2025 05 04.42993717 03 43.283+35 51 24.44   ~54Al       VNEOCPV00
     C142AD5 mC2025 05 04.48268417 03 20.387+35 37 09.30   ~54C2 20.81GVNEOCPV00
     C142AD5 mC2025 05 04.48330617 03 20.131+35 36 59.69   ~54C2 21.28GVNEOCPV00
     C142AD5 mC2025 05 04.48392817 03 19.890+35 36 49.36   ~54C2 21.12GVNEOCPV00
     C142AD5 mC2025 05 04.48455517 03 19.609+35 36 39.28   ~54C2 20.69GVNEOCPV00

Station data:
(V00) Kitt Peak-Bok  (N31.963125 W111.600190)  US/Arizona.  Observers T. A.
   Pruyne, B. M. Africano, E. J. Christensen, G. A. Farneth, D. C. Fuls, A.
   R. Gibbs, A. D. Grauer, H. Gröller, J. A. Johnson, R. A. Kowalski, S. M.
   Larson, G. J. Leonard, D. Rankin, R. L. Seaman, F. C. Shelly, K. W.
   Wierzchoś. 2.25-m reflector + 4x4K mosaic CCD.

Orbital elements:  C142AD5
   Perihelion 2025 Mar 23.75350 +/- 4.28 TT = 18:05:02 (JD 2460758.25350)
Epoch 2025 May  4.0 TT = JDT 2460799.5   Earth MOID: 0.0149      AutoNEOCP
M  21.24865570 +/- 8                (J2000 ecliptic)
n   0.51516263 +/- 0.16             Peri.  319.42596 +/- 35
a   1.54113190 +/- 0.32             Node   213.25771 +/- 37
e   0.4085247 +/- 0.136             Incl.    8.09556 +/- 4.6
P   1.913/698.795d         H 26.52  G  0.15   U 11.5  SR
q 0.91154130 +/- 0.0229    Q 2.17072250 +/- 0.805
From 8 observations 2025 May 4 (1.7 hr); mean residual 0".30
Residuals in arcseconds: 
250504 V00  .66+  .48+    250504 V00  .42-  .30-    250504 V00  .24+  .01-    
250504 V00  .22-  .45-    250504 V00  .11-  .24-    250504 V00  .04+  .08+    
250504 V00  .16-  .19+    250504 V00  .02-  .24+    

Ephemerides (geocentric):
Date (UTC) HH   RA             Dec           delta  r     elong  mag " sig PA
---- --------  ------------   ------------  ------ ------ -----  --- --------
2025 05 20 04  16 40 38.694   +14 33 00.46  .11782 1.1083 143.1 23.5 511' 165
2025 05 20 05  16 40 37.245   +14 31 49.34  .11806 1.1086 143.1 23.5 512' 165
2025 05 20 06  16 40 35.799   +14 30 38.39  .11830 1.1088 143.2 23.5 513' 165
2025 05 20 07  16 40 34.355   +14 29 27.61  .11853 1.1091 143.2 23.5 513' 165
2025 05 20 08  16 40 32.914   +14 28 16.99  .11877 1.1093 143.2 23.5 514' 165
2025 05 20 09  16 40 31.476   +14 27 06.55  .11901 1.1095 143.2 23.5 515' 165
2025 05 20 10  16 40 30.040   +14 25 56.26  .11925 1.1098 143.3 23.5 516' 165
2025 05 20 11  16 40 28.607   +14 24 46.14  .11949 1.1100 143.3 23.5 516' 165
2025 05 20 12  16 40 27.176   +14 23 36.19  .11973 1.1102 143.3 23.5 517' 165
2025 05 20 13  16 40 25.748   +14 22 26.39  .11997 1.1105 143.3 23.5 518' 165
2025 05 20 14  16 40 24.322   +14 21 16.76  .12020 1.1107 143.4 23.5 518' 165
2025 05 20 15  16 40 22.899   +14 20 07.29  .12044 1.1110 143.4 23.5 519' 165
2025 05 20 16  16 40 21.479   +14 18 57.97  .12068 1.1112 143.4 23.5 520' 165
2025 05 20 17  16 40 20.061   +14 17 48.82  .12092 1.1114 143.4 23.5 521' 165
2025 05 20 18  16 40 18.646   +14 16 39.82  .12116 1.1117 143.5 23.5 521' 165
2025 05 20 19  16 40 17.233   +14 15 30.97  .12140 1.1119 143.5 23.6 522' 165
2025 05 20 20  16 40 15.822   +14 14 22.28  .12164 1.1122 143.5 23.6 523' 165
2025 05 20 21  16 40 14.414   +14 13 13.74  .12188 1.1124 143.5 23.6 523' 165
2025 05 20 22  16 40 13.009   +14 12 05.35  .12212 1.1126 143.6 23.6 524' 165
2025 05 20 23  16 40 11.606   +14 10 57.12  .12236 1.1129 143.6 23.6 525' 165
2025 05 21 00  16 40 10.205   +14 09 49.03  .12259 1.1131 143.6 23.6 525' 165
2025 05 21 01  16 40 08.807   +14 08 41.10  .12283 1.1134 143.6 23.6 526' 165
2025 05 21 02  16 40 07.412   +14 07 33.31  .12307 1.1136 143.7 23.6 527' 165
2025 05 21 03  16 40 06.019   +14 06 25.67  .12331 1.1138 143.7 23.6 527' 165
2025 05 21 04  16 40 04.628   +14 05 18.18  .12355 1.1141 143.7 23.6 528' 165
2025 05 21 05  16 40 03.239   +14 04 10.83  .12379 1.1143 143.8 23.6 529' 165
2025 05 21 06  16 40 01.854   +14 03 03.62  .12403 1.1145 143.8 23.6 529' 165
2025 05 21 07  16 40 00.470   +14 01 56.56  .12427 1.1148 143.8 23.6 530' 165
2025 05 21 08  16 39 59.089   +14 00 49.64  .12451 1.1150 143.8 23.6 531' 165
2025 05 21 09  16 39 57.710   +13 59 42.86  .12475 1.1153 143.8 23.6 531' 165
2025 05 21 10  16 39 56.334   +13 58 36.22  .12499 1.1155 143.9 23.6 532' 165
2025 05 21 11  16 39 54.960   +13 57 29.72  .12523 1.1157 143.9 23.6 533' 165
2025 05 21 12  16 39 53.588   +13 56 23.36  .12547 1.1160 143.9 23.6 533' 165
2025 05 21 13  16 39 52.219   +13 55 17.13  .12571 1.1162 143.9 23.6 534' 165
2025 05 21 14  16 39 50.852   +13 54 11.05  .12595 1.1165 144.0 23.6 535' 165
2025 05 21 15  16 39 49.488   +13 53 05.09  .12619 1.1167 144.0 23.6 535' 165
2025 05 21 16  16 39 48.126   +13 51 59.28  .12643 1.1169 144.0 23.6 536' 165
2025 05 21 17  16 39 46.766   +13 50 53.59  .12667 1.1172 144.0 23.6 537' 165
2025 05 21 18  16 39 45.408   +13 49 48.04  .12691 1.1174 144.1 23.6 537' 165
2025 05 21 19  16 39 44.053   +13 48 42.62  .12716 1.1177 144.1 23.6 538' 165
2025 05 21 20  16 39 42.700   +13 47 37.33  .12740 1.1179 144.1 23.6 539' 165
2025 05 21 21  16 39 41.350   +13 46 32.17  .12764 1.1182 144.1 23.6 539' 165
2025 05 21 22  16 39 40.002   +13 45 27.14  .12788 1.1184 144.2 23.7 540' 165
2025 05 21 23  16 39 38.656   +13 44 22.24  .12812 1.1186 144.2 23.7 541' 165
2025 05 22 00  16 39 37.312   +13 43 17.47  .12836 1.1189 144.2 23.7 541' 165
2025 05 22 01  16 39 35.971   +13 42 12.82  .12860 1.1191 144.2 23.7 542' 165
2025 05 22 02  16 39 34.632   +13 41 08.30  .12884 1.1194 144.3 23.7 542' 165
2025 05 22 03  16 39 33.295   +13 40 03.90  .12908 1.1196 144.3 23.7 543' 165